Time,TemperatureF,DewpointF,PressureIn,WindDirection,WindDirectionDegrees,WindSpeedMPH,WindSpeedGustMPH,Humidity,HourlyPrecipIn,Conditions,Clouds,dailyrainin,SoftwareType,DateUTC
2013-09-23 00:00:00,56.0,42.0,-100.00,North,7,4.0,14.0,59,0.00,,,-99.99,,2013-09-23 04:00:00,
2013-09-23 00:43:00,56.0,42.0,-100.00,North,7,4.0,14.0,59,0.00,,,-99.99,,2013-09-23 04:43:00,
2013-09-23 00:54:00,56.0,42.0,-100.00,North,7,4.0,14.0,59,0.00,,,-99.99,,2013-09-23 04:54:00,
2013-09-23 01:00:00,55.0,40.0,-100.00,NNW,340,6.0,13.0,58,0.00,,,-99.99,,2013-09-23 05:00:00,
2013-09-23 01:43:00,55.0,40.0,-100.00,NNW,340,6.0,13.0,58,0.00,,,-99.99,,2013-09-23 05:43:00,
2013-09-23 01:53:00,55.0,40.0,-100.00,NNW,340,6.0,13.0,58,0.00,,,-99.99,,2013-09-23 05:53:00,
2013-09-23 02:00:00,54.0,40.0,-100.00,NNE,19,7.0,15.0,59,0.00,,,-99.99,,2013-09-23 06:00:00,
2013-09-23 02:42:00,54.0,40.0,-100.00,NNE,19,7.0,15.0,59,0.00,,,-99.99,,2013-09-23 06:42:00,
2013-09-23 02:52:00,54.0,40.0,-100.00,NNE,19,7.0,15.0,59,0.00,,,-99.99,,2013-09-23 06:52:00,
2013-09-23 03:00:00,53.0,40.0,-100.00,NW,323,4.0,11.0,63,0.00,,,-99.99,,2013-09-23 07:00:00,
2013-09-23 03:42:00,53.0,40.0,-100.00,NW,323,4.0,11.0,63,0.00,,,-99.99,,2013-09-23 07:42:00,
2013-09-23 03:52:00,53.0,40.0,-100.00,NW,323,4.0,11.0,63,0.00,,,-99.99,,2013-09-23 07:52:00,
2013-09-23 04:00:00,52.0,41.0,-100.00,NW,304,4.0,10.0,67,0.00,,,-99.99,,2013-09-23 08:00:00,
2013-09-23 04:42:00,52.0,41.0,-100.00,NW,304,4.0,10.0,67,0.00,,,-99.99,,2013-09-23 08:42:00,
2013-09-23 04:52:00,52.0,41.0,-100.00,NW,304,4.0,10.0,67,0.00,,,-99.99,,2013-09-23 08:52:00,
2013-09-23 05:00:00,49.0,42.0,-100.00,WNW,296,1.0,7.0,75,0.00,,,-99.99,,2013-09-23 09:00:00,
2013-09-23 05:43:00,49.0,42.0,-100.00,WNW,296,1.0,7.0,75,0.00,,,-99.99,,2013-09-23 09:43:00,
2013-09-23 05:53:00,49.0,42.0,-100.00,WNW,296,1.0,7.0,75,0.00,,,-99.99,,2013-09-23 09:53:00,
2013-09-23 06:00:00,47.0,41.0,-100.00,West,261,0.0,4.0,80,0.00,,,-99.99,,2013-09-23 10:00:00,
2013-09-23 06:43:00,47.0,41.0,-100.00,West,261,0.0,4.0,80,0.00,,,-99.99,,2013-09-23 10:43:00,
2013-09-23 06:53:00,47.0,41.0,-100.00,West,261,0.0,4.0,80,0.00,,,-99.99,,2013-09-23 10:53:00,
2013-09-23 07:00:00,48.0,42.0,-100.00,NW,308,0.0,4.0,80,0.00,,,-99.99,,2013-09-23 11:00:00,
2013-09-23 07:42:00,48.0,42.0,-100.00,NW,308,0.0,4.0,80,0.00,,,-99.99,,2013-09-23 11:42:00,
2013-09-23 07:52:00,48.0,42.0,-100.00,NW,308,0.0,4.0,80,0.00,,,-99.99,,2013-09-23 11:52:00,
2013-09-23 08:00:00,53.0,43.0,-100.00,NW,312,4.0,7.0,70,0.00,,,-99.99,,2013-09-23 12:00:00,
2013-09-23 08:42:00,53.0,43.0,-100.00,NW,312,4.0,7.0,70,0.00,,,-99.99,,2013-09-23 12:42:00,
2013-09-23 08:52:00,53.0,43.0,-100.00,NW,312,4.0,7.0,70,0.00,,,-99.99,,2013-09-23 12:52:00,
2013-09-23 09:00:00,55.0,40.0,-100.00,NW,315,5.0,15.0,57,0.00,,,-99.99,,2013-09-23 13:00:00,
2013-09-23 09:42:00,55.0,40.0,-100.00,NW,315,5.0,15.0,57,0.00,,,-99.99,,2013-09-23 13:42:00,
2013-09-23 09:52:00,55.0,40.0,-100.00,NW,315,5.0,15.0,57,0.00,,,-99.99,,2013-09-23 13:52:00,
2013-09-23 10:00:00,57.0,39.0,-100.00,NNW,341,10.0,14.0,53,0.00,,,-99.99,,2013-09-23 14:00:00,
2013-09-23 10:43:00,57.0,39.0,-100.00,NNW,341,10.0,14.0,53,0.00,,,-99.99,,2013-09-23 14:43:00,
2013-09-23 10:52:00,57.0,39.0,-100.00,NNW,341,10.0,14.0,53,0.00,,,-99.99,,2013-09-23 14:52:00,
2013-09-23 11:00:00,58.0,40.0,-100.00,North,9,8.0,16.0,52,0.00,,,-99.99,,2013-09-23 15:00:00,
2013-09-23 11:43:00,58.0,40.0,-100.00,North,9,8.0,16.0,52,0.00,,,-99.99,,2013-09-23 15:43:00,
2013-09-23 11:54:00,58.0,40.0,-100.00,North,9,8.0,16.0,52,0.00,,,-99.99,,2013-09-23 15:54:00,
2013-09-23 12:00:00,61.0,40.0,-100.00,WNW,302,4.0,16.0,45,0.00,,,-99.99,,2013-09-23 16:00:00,
2013-09-23 12:43:00,61.0,40.0,-100.00,WNW,302,4.0,16.0,45,0.00,,,-99.99,,2013-09-23 16:43:00,
2013-09-23 12:53:00,61.0,40.0,-100.00,WNW,302,4.0,16.0,45,0.00,,,-99.99,,2013-09-23 16:53:00,
2013-09-23 13:00:00,61.0,39.0,-100.00,NNW,327,10.0,18.0,44,0.00,,,-99.99,,2013-09-23 17:00:00,
2013-09-23 13:42:00,61.0,39.0,-100.00,NNW,327,10.0,18.0,44,0.00,,,-99.99,,2013-09-23 17:42:00,
2013-09-23 13:52:00,61.0,39.0,-100.00,NNW,327,10.0,18.0,44,0.00,,,-99.99,,2013-09-23 17:52:00,
2013-09-23 14:00:00,63.0,41.0,-100.00,North,2,10.0,-999.0,44,-99.99,,,-99.99,,2013-09-23 18:00:00,
2013-09-23 14:42:00,63.0,41.0,-100.00,North,2,10.0,-999.0,44,-99.99,,,-99.99,,2013-09-23 18:42:00,
2013-09-23 14:52:00,63.0,41.0,-100.00,North,2,10.0,-999.0,44,-99.99,,,-99.99,,2013-09-23 18:52:00,
2013-09-23 15:00:00,65.0,42.0,-100.00,NNW,330,8.0,-999.0,43,-99.99,,,-99.99,,2013-09-23 19:00:00,
2013-09-23 15:42:00,65.0,42.0,-100.00,NNW,330,8.0,-999.0,43,-99.99,,,-99.99,,2013-09-23 19:42:00,
2013-09-23 15:53:00,65.0,42.0,-100.00,NNW,330,8.0,-999.0,43,-99.99,,,-99.99,,2013-09-23 19:53:00,
2013-09-23 16:00:00,65.0,40.0,-100.00,WNW,294,12.0,18.0,40,0.00,,,-99.99,,2013-09-23 20:00:00,
2013-09-23 16:42:00,65.0,40.0,-100.00,WNW,294,12.0,18.0,40,0.00,,,-99.99,,2013-09-23 20:42:00,
2013-09-23 16:52:00,65.0,40.0,-100.00,WNW,294,12.0,18.0,40,0.00,,,-99.99,,2013-09-23 20:52:00,
2013-09-23 17:00:00,65.0,41.0,-100.00,North,354,7.0,15.0,42,0.00,,,-99.99,,2013-09-23 21:00:00,
2013-09-23 17:44:00,65.0,41.0,-100.00,North,354,7.0,15.0,42,0.00,,,-99.99,,2013-09-23 21:44:00,
2013-09-23 17:54:00,65.0,41.0,-100.00,North,354,7.0,15.0,42,0.00,,,-99.99,,2013-09-23 21:54:00,
2013-09-23 18:00:00,63.0,40.0,-100.00,NW,319,8.0,16.0,43,0.00,,,-99.99,,2013-09-23 22:00:00,
2013-09-23 18:43:00,63.0,40.0,-100.00,NW,319,8.0,16.0,43,0.00,,,-99.99,,2013-09-23 22:43:00,
2013-09-23 18:54:00,63.0,40.0,-100.00,NW,319,8.0,16.0,43,0.00,,,-99.99,,2013-09-23 22:54:00,
2013-09-23 19:00:00,60.0,42.0,-100.00,NW,310,5.0,11.0,52,0.00,,,-99.99,,2013-09-23 23:00:00,
2013-09-23 19:42:00,60.0,42.0,-100.00,NW,310,5.0,11.0,52,0.00,,,-99.99,,2013-09-23 23:42:00,
2013-09-23 19:54:00,60.0,42.0,-100.00,NW,310,5.0,11.0,52,0.00,,,-99.99,,2013-09-23 23:54:00,
2013-09-23 20:00:00,57.0,44.0,-100.00,NNW,334,0.0,5.0,63,0.00,,,-99.99,,2013-09-24 00:00:00,
2013-09-23 20:43:00,57.0,44.0,-100.00,NNW,334,0.0,5.0,63,0.00,,,-99.99,,2013-09-24 00:43:00,
2013-09-23 20:52:00,57.0,44.0,-100.00,NNW,334,0.0,5.0,63,0.00,,,-99.99,,2013-09-24 00:52:00,
2013-09-23 21:00:00,56.0,44.0,-100.00,NW,319,5.0,7.0,63,0.00,,,-99.99,,2013-09-24 01:00:00,
2013-09-23 21:43:00,56.0,44.0,-100.00,NW,319,5.0,7.0,63,0.00,,,-99.99,,2013-09-24 01:43:00,
2013-09-23 21:52:00,56.0,44.0,-100.00,NW,319,5.0,7.0,63,0.00,,,-99.99,,2013-09-24 01:52:00,
2013-09-23 22:00:00,56.0,43.0,-100.00,NW,324,5.0,10.0,63,0.00,,,-99.99,,2013-09-24 02:00:00,
2013-09-23 22:42:00,56.0,43.0,-100.00,NW,324,5.0,10.0,63,0.00,,,-99.99,,2013-09-24 02:42:00,
2013-09-23 22:52:00,56.0,43.0,-100.00,NW,324,5.0,10.0,63,0.00,,,-99.99,,2013-09-24 02:52:00,
2013-09-23 23:00:00,54.0,43.0,-100.00,North,0,6.0,11.0,66,0.00,,,-99.99,,2013-09-24 03:00:00,
2013-09-23 23:45:00,54.0,43.0,-100.00,North,0,6.0,11.0,66,0.00,,,-99.99,,2013-09-24 03:45:00,
2013-09-23 23:55:00,54.0,43.0,-100.00,North,0,6.0,11.0,66,0.00,,,-99.99,,2013-09-24 03:55:00,